Regional Weather Roundup
Issued by NWS

Home | Current Version | Previous Version | Text Only | Print | Product List | Glossary On
Versions: 1 2 3 4 5 6 7 8 9 10 11 12 13 14 15 16 17 18 19 20 21 22 23 24 25 26 27 28 29 30 31 32 33 34 35 36 37 38 39 40 41 42 43 44 45 46 47 48 49 50
000
ASUS42 KTBW 211410
RWRFL
FLORIDA REGIONAL WEATHER ROUNDUP
NATIONAL WEATHER SERVICE TAMPA BAY RUSKIN FL
1000 AM EDT TUE OCT 21 2014

NOTE: "FAIR" INDICATES FEW OR NO CLOUDS BELOW 12,000 FEET WITH NO
SIGNIFICANT WEATHER AND/OR OBSTRUCTIONS TO VISIBILITY.


FLZ001>010-012>015-112-114-115-211500-
PANHANDLE FLORIDA

CITY           SKY/WX    TMP DP  RH WIND       PRES   REMARKS
PENSACOLA      SUNNY     65  52  62 N6        30.05R
PENSACOLA NAS  MOSUNNY   65  56  72 N5        30.04R
MILTON NAS     MOSUNNY   63  52  67 N10       30.06R
CRESTVIEW      SUNNY     64  55  72 NE3       30.06R
DUKE FIELD     MOSUNNY   62  53  72 N6        30.05R
VALPARAISO     MOSUNNY   65  52  61 N7        30.04R
MARY ESTHER    SUNNY     65  50  58 N8        30.03R
PANAMA CITY    FAIR      66  55  67 N6        30.02R
TYNDALL AFB    SUNNY     67  58  73 NE8       30.02R
APALACHICOLA   SUNNY     72  61  68 NE7       30.01R

STATION/POSITION SKY/WX   TEMP    WIND        PRES    WAVE   SWELL
                          AIR SEA DIR/SP/G            HT/PER HT/PER
                          (F)     (DEG/KT/KT) (MB)    (FT/S) (FT/S)
30.1N   87.6W              70 78   30/ 14/ 16 1016.7R   2/ 3
29.2N   88.2W              75 79   40/ 12/ 16 1017.0R   1/ 5
28.8N   86.0W              75 81   20/ 12/ 14 1015.8R   2/ 4
PANAMA CITY BEAC           66 78   30/  6/ 10 1016.6R
CAPE SAN BLAS    NOT AVBL
TOWER C                    72      30/ 10/ 12 1015.7R
28.5N   84.5W              78 82  350/  6/  8 1015.2R   1/ 3

$$
FLZ011-016>038-118-127-128-134-139-239-211500-
NORTH FLORIDA

CITY           SKY/WX    TMP DP  RH WIND       PRES   REMARKS
MARIANNA       SUNNY     64  59  83 N5        30.03R
TALLAHASSEE    MOSUNNY   69  58  67 N3        30.02R
PERRY          SUNNY     66  61  82 NE5       30.02R
CROSS CITY       N/A     69  64  84 NE8       30.00R
LAKE CITY      FAIR      68  63  83 NE7       30.01R
GAINESVILLE    MOSUNNY   70  63  78 N6        30.00R
MAYPORT NAS    MOSUNNY   74  67  78 CALM      29.99R
JACKSONVILLE   MOSUNNY   70  67  90 N5        29.99S
JAX NAS        MOSUNNY   74  65  73 N6        30.00R
JAX CRAIG      MOSUNNY   73  65  75 N5        29.99R
JAX CECIL      SUNNY     70  66  88 N6        30.00R
FERNANDINA BEA FAIR      77  70  78 N5        29.98R
ST AUGUSTINE   MOSUNNY   73  67  81 NW5       30.00R

STATION/POSITION SKY/WX   TEMP    WIND        PRES    WAVE   SWELL
                          AIR SEA DIR/SP/G            HT/PER HT/PER
                          (F)     (DEG/KT/KT) (MB)    (FT/S) (FT/S)
SHELL POINT                63      10/  2/  4   N/A
KEATON BEACH               69      40/  5/  8 1016.0R
CEDAR KEY                  69      10/  5/  6 1015.5R
FERNANDINA                 72 76   10/  4/  8 1014.9R
30.7N   81.3W                 77                N/A     2/10   2/11
MAYPORT                    71 78  340/  2/  4   N/A
31.4N   80.9W              73 76  350/ 12/ 14 1015.3R   2/11   2/11
ST AUGUSTINE               73     290/  4/  6 1016.1R

$$
FLZ040-043>046-052-053-057-058-063-144-211500-
INTERIOR CENTRAL FLORIDA

CITY           SKY/WX    TMP DP  RH WIND       PRES   REMARKS
OCALA          SUNNY     70  64  83 NE3       29.99R
THE VILLAGES     N/A     72  70  94 N9        29.89S
LEESBURG       CLOUDY    75  69  81 CALM      29.99R
SANFORD        CLOUDY    75  69  81 CALM      29.98R
ORLANDO EXEC   CLOUDY    76  71  85 CALM      29.98R
ORLANDO INTL   CLOUDY    75  71  87 CALM      29.98R
WINTER HAVEN   CLOUDY    74  70  87 W3        29.99R
LAKELAND       CLOUDY    72  70  94 CALM      29.98S
BARTOW         PTSUNNY   72  72 100 CALM      29.99R
OKEECHOBEE     CLOUDY    73  72  94 MISG        N/A

$$
FLZ041-047-054-059-064-141-147-211500-
EAST CENTRAL FLORIDA

CITY           SKY/WX    TMP DP  RH WIND       PRES   REMARKS
ORMOND BEACH   SUNNY     72  68  88 NW3       29.99R
DAYTONA BEACH  PTSUNNY   75  68  78 W5        29.98R
DELAND         CLOUDY    73  68  83 CALM      30.00R
NEW SMYRNA BEA SUNNY     75  68  78 CALM      29.99R
JFK SPACE CTR    N/A    N/A N/A N/A MISG        N/A
TITUSVILLE     PTSUNNY   73  70  88 CALM      29.98R
CAPE CANAVERAL CLOUDY    77  70  78 CALM      29.97R
PATRICK AFB    CLOUDY    77  69  76 NW1       29.97R
MELBOURNE      CLOUDY    77  70  79 CALM      29.97R
VERO BEACH     CLOUDY    74  70  87 CALM      29.98R
FT PIERCE      CLOUDY    75  70  84 CALM      29.97R
STUART         PTSUNNY   75  72  88 CALM      29.98R

STATION/POSITION SKY/WX   TEMP    WIND        PRES    WAVE   SWELL
                          AIR SEA DIR/SP/G            HT/PER HT/PER
                          (F)     (DEG/KT/KT) (MB)    (FT/S) (FT/S)
28.5N   80.2W              79 82  240/  6/  8 1015.2R
28.9N   78.5W              80 80  280/  4/  6 1015.1S   3/ 8   2/ 8
TRIDENT PIER               77 80  320/  2/  3 1014.6R
28.4N   80.5W                 80                N/A     2/ 9
27.6N   80.2W                 81                N/A     2/10   2/11

$$
FLZ050-056-061-142-242-148-248-149-249-151-251-155-255-
160-260-211500-
WEST CENTRAL FLORIDA

CITY           SKY/WX    TMP DP  RH WIND       PRES   REMARKS
CRYSTAL RIVER  FAIR      70  64  83 NE3       29.98S
INVERNESS      FAIR      70  68  94 CALM      29.99S
BROOKSVILLE    CLOUDY    71  67  87 N3        29.99R
ZEPHYRHILLS      N/A     68  68 100 CALM      29.99R
CLEARWATER     CLOUDY    76  67  73 N5        29.98R
TAMPA INTL     CLOUDY    75  65  70 N5        29.98R
TAMPA EXEC     CLOUDY    73  70  88 CALM      29.99R
PLANT CITY     CLOUDY    73 N/A N/A CALM      30.00R
MACDILL AFB    CLOUDY    73  70  91 E5        29.98R
ST PETERSBURG  CLOUDY    76  65  68 NE5       29.96R
SARASOTA       CLOUDY    75  69  81 NE6       29.96R
VENICE           N/A     77  72  83 MISG      29.97R

STATION/POSITION SKY/WX   TEMP    WIND        PRES    WAVE   SWELL
                          AIR SEA DIR/SP/G            HT/PER HT/PER
                          (F)     (DEG/KT/KT) (MB)    (FT/S) (FT/S)
CEDAR KEY                  69      10/  5/  6 1015.5R
28.5N   84.5W              78 82  350/  6/  8 1015.2R   1/ 3
27.3N   84.3W                 81                N/A     1/ 5
CLEARWATER BEACH NOT AVBL
MIDDLE TAMPA BAY           76      50/  8/  9 1015.2R
VENICE                     76 80  100/  2/  2 1014.4R

$$
FLZ066-069-070-075>078-162-262-165-265-211500-
SOUTHWEST FLORIDA AND KEYS

CITY           SKY/WX    TMP DP  RH WIND       PRES   REMARKS
PUNTA GORDA    CLOUDY    78  71  79 SE6       29.98R
FT MYERS       CLOUDY    76  72  87 E3        29.96R
SOUTHWEST INTL CLOUDY    75  71  87 CALM      29.97R
NAPLES         CLOUDY    77  71  82 E6        29.95S
MARATHON       CLOUDY    75  74  96 SE10G21   29.97R THUNDER
KEY WEST NAS   CLOUDY    80  74  81 S3        29.95S
KEY WEST INTL  CLOUDY    82  76  81 S7        29.96R

STATION/POSITION SKY/WX   TEMP    WIND        PRES    WAVE   SWELL
                          AIR SEA DIR/SP/G            HT/PER HT/PER
                          (F)     (DEG/KT/KT) (MB)    (FT/S) (FT/S)
VENICE                     76 80  100/  2/  2 1014.4R
NAPLES                     76 84   90/  4/  7 1014.9S
26.0N   85.6W              80 83   80/  6/ 10 1014.8R   2/ 6   2/ 6
DRY TORTUGAS               80     170/  5/  6 1014.1R
NW FL BAY                  79     130/ 10/ 12 1014.3R
SAND KEY                   80     180/ 13/ 22 1014.3R
SOMBRERO KEY               73      70/ 13/ 15 1015.6R
LONG KEY                   80 81  130/  9/ 12 1015.1R
MOLASSES REEF              79 83  150/ 11/ 12 1014.8R

$$
FLZ067-068-071>074-168-172>174-211500-
SOUTHEAST FLORIDA

CITY           SKY/WX    TMP DP  RH WIND       PRES   REMARKS
W PALM BEACH   CLOUDY    79  72  79 SE8       29.96R
FT LAUDER-EXEC CLOUDY    79  72  79 SE3       29.97R
FT LAUDERDALE  CLOUDY    81  72  74 S10       29.97R
POMPANO BEACH  CLOUDY    81  74  79 S5        29.97R
PEMBROKE PINES CLOUDY    80  72  76 S7        29.98R
OPA LOCKA      CLOUDY    79  72  79 S6        29.98R
MIAMI          CLOUDY    79  73  82 SE6       29.97R
WEST KENDALL   CLOUDY    80  74  81 CALM      29.97S
HOMESTEAD      LGT RAIN  78  74  87 S3        29.97R

STATION/POSITION SKY/WX   TEMP    WIND        PRES    WAVE   SWELL
                          AIR SEA DIR/SP/G            HT/PER HT/PER
                          (F)     (DEG/KT/KT) (MB)    (FT/S) (FT/S)
PORT EVERGLADES            80     160/  7/ 10 1014.9
VIRGINIA KEY               79 81  170/  4/  6 1015.4R
LAKE WORTH                 78 83  140/  3/  5 1014.7F
FOWEY ROCKS                81 82  150/  9/ 10 1015.1R
SETTLEMENT POINT           80     120/  5/  6 1015.7R

$$




USA.gov is the U.S. government's official web portal to all federal, state and local government web resources and services.